This demonstration page uses our WeatherBlox Daily Observations layout. Learn more.

Left ArrowRight Arrow

39.08367, -84.50855

Hourly Observations for January 16, 2018

Temp ( °F °C ) Dew Point ( °F °C ) Humidity (%) Winds ( mph kmh ) Pressure ( in mb ) Visibility ( mi km ) Precip ( " mm )
12:22 am 00:22 Cloudy 18 -7.8 10 -12.2 71 71 NW 9 15 30.45 1031 10 16.0934 0 0
12:53 am 00:53 Cloudy 17 -8.3 9 -12.8 70 70 WNW 7 11 30.45 1031 10 16.0934 0 0
1:53 am 01:53 Cloudy with Light Snow 15 -9.4 7 -13.9 70 70 NW 6 9 30.48 1032 4 6.43736 0 0.0254
2:53 am 02:53 Cloudy 15 -9.4 6 -14.4 67 67 WNW 12 19 30.5 1033 10 16.0934 0 0.0254
3:20 am 03:20 Cloudy 14 -10 6 -14.4 71 71 NNW 6 9 30.53 1034 10 16.0934 0 0
3:53 am 03:53 Cloudy 14 -10 6 -14.4 71 71 W 8 13 30.5 1033 10 16.0934 0 0
4:53 am 04:53 Cloudy 13 -10.6 6 -14.4 74 74 NNW 7 11 30.52 1034 10 16.0934 0 0
5:53 am 05:53 Cloudy 12 -11.1 4 -15.6 70 70 NW 7 11 30.53 1034 10 16.0934 0 0
6:53 am 06:53 Cloudy 11 -11.7 3 -16.1 70 70 NW 9 15 30.54 1034 10 16.0934 0 0
7:53 am 07:53 Cloudy 10 -12.2 2 -16.7 69 69 VRB 5 7 30.57 1035 10 16.0934 0 0
8:25 am 08:25 Cloudy 10 -12.2 2 -16.7 69 69 WNW 10 17 30.62 1037 10 16.0934 0 0
8:53 am 08:53 Cloudy 10 -12.2 2 -16.7 69 69 W 9 15 30.57 1035 10 16.0934 0 0
9:53 am 09:53 Partly Cloudy 9 -12.8 1 -17.2 70 70 W 10 17 30.59 1036 10 16.0934 0 0
10:53 am 10:53 Cloudy 10 -12.2 2 -16.7 69 69 W 8 13 30.6 1036 10 16.0934 0 0
11:53 am 11:53 Partly Cloudy 9 -12.8 1 -17.2 70 70 W 8 13 30.6 1036 10 16.0934 0 0
12:53 pm 12:53 Mostly Sunny 10 -12.2 0 -17.8 63 63 W 7 11 30.56 1035 10 16.0934 0 0
1:53 pm 13:53 Mostly Sunny 11 -11.7 1 -17.2 64 64 SW 8 13 30.55 1035 10 16.0934 0 0
2:53 pm 14:53 Sunny 12 -11.1 1 -17.2 61 61 SW 9 15 30.55 1035 10 16.0934 0 0
3:53 pm 15:53 Mostly Sunny 12 -11.1 2 -16.7 64 64 SW 8 13 30.56 1035 10 16.0934 0 0
4:19 pm 16:19 Mostly Cloudy 13 -10.6 3 -16.1 64 64 SW 8 13 30.59 1036 10 16.0934 0 0
4:53 pm 16:53 Mostly Cloudy 13 -10.6 3 -16.1 64 64 WSW 9 15 30.57 1035 10 16.0934 0 0
5:53 pm 17:53 Cloudy 13 -10.6 4 -15.6 67 67 WNW 7 11 30.59 1036 10 16.0934 0 0.0254
6:53 pm 18:53 Cloudy 12 -11.1 3 -16.1 67 67 W 12 19 30.6 1036 10 16.0934 0 0
7:53 pm 19:53 Cloudy 11 -11.7 2 -16.7 67 67 W 10 17 30.62 1037 10 16.0934 0 0
8:53 pm 20:53 Cloudy 10 -12.2 2 -16.7 69 69 W 10 17 30.63 1037 10 16.0934 0 0
9:53 pm 21:53 Cloudy 10 -12.2 2 -16.7 69 69 W 9 15 30.64 1038 10 16.0934 0 0
10:53 pm 22:53 Cloudy 10 -12.2 3 -16.1 73 73 WNW 6 9 30.64 1038 10 16.0934 0 0
11:53 pm 23:53 Cloudy 10 -12.2 3 -16.1 73 73 NNW 5 7 30.63 1037 10 16.0934 0 0

Powered by AerisWeather